Knox, IN

12:01 AM CDT on May 26, 2017 (GMT -0500)
Starke County

Weather History for KOXI - May, 2014

Change the Weather History Date:

Monday, May 19, 2014

  Actual Average (KRCR) Record (KRCR)
Temperature  
Mean Temperature 56 °F -  
Max Temperature 90 °F 74 °F 87 °F (2013)
Min Temperature 42 °F 51 °F 42 °F (2014)
Degree Days  
Heating Degree Days 10    
Growing Degree Days 6 (Base 50)    
Moisture  
Dew Point 39 °F    
Average Humidity 51    
Maximum Humidity 83    
Minimum Humidity 31    
Precipitation  
Precipitation 0.00 in - - ()
Sea Level Pressure  
Sea Level Pressure 30.16 in    
Wind  
Wind Speed 9 mph (SSE)    
Max Wind Speed 21 mph    
Max Gust Speed 30 mph    
Visibility 10 miles    
Events      
Averages and records for this station are not official NWS values.
T = Trace of Precipitation, MM = Missing Value Source: NWS Daily Summary

Daily Weather History Graph

Daily Weather History Graph

Search for Another Location

Airport or City:

Trip Planner

Search our weather history database for the weather conditions in past years. The results will help you decide how hot, cold, wet, or windy it might be!

Date:

Astronomy

May. 19, 2014 Rise Set
Actual Time 5:24 AM CDT 8:02 PM CDT
Civil Twilight 4:52 AM CDT 8:34 PM CDT
Nautical Twilight 4:12 AM CDT 9:14 PM CDT
Astronomical Twilight 3:27 AM CDT 9:59 PM CDT
Moon No Moon Rise 10:22 AM CDT (5/19)
Length of Visible Light 15h 42m
Length of Day
14h 38m
Waning Gibbous, 71% of the Moon is Illuminated
May 19
Waning Gibbous
May 21
Last Quarter
May 28
New
Jun 5
First Quarter
Jun 12
Full

Hourly Weather History & Observations

Time (CDT) Temp. Windchill Dew Point Humidity Pressure Visibility Wind Dir Wind Speed Gust Speed Precip Events Conditions
12:15 AM 48.9 °F - 38.5 °F 67% 30.22 in 10.0 mi SSE 5.8 mph - N/A   Clear
12:35 AM 47.7 °F - 38.5 °F 70% 30.22 in 10.0 mi South 5.8 mph - N/A   Clear
1:15 AM 46.9 °F - 38.3 °F 72% 30.22 in 10.0 mi SSE 3.5 mph - N/A   Clear
1:35 AM 46.0 °F 44.8 °F 38.7 °F 75% 30.23 in 10.0 mi SSE 3.5 mph - N/A   Clear
1:55 AM 45.7 °F 44.4 °F 38.3 °F 75% 30.23 in 10.0 mi South 3.5 mph - N/A   Clear
2:15 AM 45.9 °F 43.6 °F 37.9 °F 74% 30.23 in 10.0 mi South 4.6 mph - N/A   Clear
2:35 AM 45.9 °F 43.6 °F 37.8 °F 73% 30.24 in 10.0 mi SSE 4.6 mph - N/A   Clear
2:55 AM 45.3 °F 44.0 °F 38.1 °F 76% 30.24 in 10.0 mi South 3.5 mph - N/A   Clear
3:15 AM 44.8 °F - 38.1 °F 77% 30.24 in 10.0 mi Calm Calm - N/A   Clear
3:35 AM 44.6 °F 43.1 °F 37.4 °F 76% 30.24 in 10.0 mi SE 3.5 mph - N/A   Clear
3:55 AM 43.3 °F 40.7 °F 37.9 °F 81% 30.25 in 10.0 mi SSE 4.6 mph - N/A   Clear
4:35 AM 43.7 °F 40.3 °F 37.9 °F 80% 30.26 in 10.0 mi SSE 5.8 mph - N/A   Clear
4:55 AM 43.2 °F 41.5 °F 37.6 °F 81% 30.26 in 10.0 mi SSE 3.5 mph - N/A   Clear
5:15 AM 42.4 °F 40.7 °F 37.2 °F 82% 30.26 in 10.0 mi SE 3.5 mph - N/A   Clear
5:35 AM 42.3 °F 40.5 °F 37.0 °F 82% 30.26 in 10.0 mi SSE 3.5 mph - N/A   Clear
5:55 AM 42.4 °F - 37.6 °F 83% 30.26 in 10.0 mi Calm Calm - N/A   Clear
6:15 AM 44.1 °F 41.5 °F 38.3 °F 80% 30.26 in 10.0 mi SSE 4.6 mph - N/A   Clear
6:35 AM 46.9 °F - 40.3 °F 78% 30.27 in 10.0 mi South 3.5 mph - N/A   Clear
6:55 AM 49.6 °F - 40.1 °F 70% 30.27 in 10.0 mi SE 3.5 mph - N/A   Clear
7:15 AM 49.6 °F - 40.3 °F 70% 30.26 in 10.0 mi SSE 5.8 mph - N/A   Clear
7:35 AM 51.8 °F - 39.6 °F 63% 30.26 in 10.0 mi South 6.9 mph - N/A   Clear
9:35 AM 61.7 °F - 39.0 °F 43% 30.26 in 10.0 mi South 11.5 mph - N/A   Clear
9:55 AM 62.6 °F - 37.8 °F 40% 30.25 in 10.0 mi South 13.8 mph - N/A   Clear
10:15 AM 63.1 °F - 37.9 °F 39% 30.25 in 10.0 mi South 16.1 mph - N/A   Clear
10:35 AM 63.7 °F - 37.6 °F 38% 30.23 in 10.0 mi SSE 15.0 mph 18.4 mph N/A   Clear
10:55 AM 64.0 °F - 37.0 °F 37% 30.23 in 10.0 mi SSE 15.0 mph 19.6 mph N/A   Clear
11:15 AM 64.6 °F - 36.9 °F 36% 30.23 in 10.0 mi South 12.7 mph 17.3 mph N/A   Clear
11:35 AM 65.5 °F - 37.9 °F 36% 30.22 in 10.0 mi SE 16.1 mph 21.9 mph N/A   Clear
11:55 AM 65.8 °F - 37.4 °F 35% 30.22 in 10.0 mi South 11.5 mph 20.7 mph N/A   Clear
12:15 PM 66.4 °F - 37.4 °F 34% 30.20 in 10.0 mi SE 16.1 mph 21.9 mph N/A   Clear
12:35 PM 66.7 °F - 37.9 °F 35% 30.20 in 10.0 mi SE 15.0 mph 20.7 mph N/A   Clear
12:55 PM 67.8 °F - 37.2 °F 32% 30.19 in 10.0 mi SSE 13.8 mph 20.7 mph N/A   Clear
1:15 PM 68.2 °F - 37.6 °F 33% 30.18 in 10.0 mi SSE 18.4 mph 21.9 mph N/A   Clear
1:35 PM 68.4 °F - 37.9 °F 33% 30.18 in 10.0 mi SSE 16.1 mph 26.5 mph N/A   Clear
1:55 PM 68.7 °F - 36.9 °F 31% 30.17 in 10.0 mi SSE 17.3 mph 23.0 mph N/A   Clear
2:15 PM 68.5 °F - 37.2 °F 32% 30.16 in 10.0 mi SSE 18.4 mph 24.2 mph N/A   Clear
2:35 PM 68.5 °F - 36.9 °F 31% 30.15 in 10.0 mi SSE 17.3 mph 24.2 mph N/A   Clear
3:15 PM 68.0 °F - 36.9 °F 32% 30.15 in 10.0 mi SSE 17.3 mph - N/A   Scattered Clouds
3:35 PM 67.3 °F - 36.1 °F 32% 30.13 in 10.0 mi SSE 17.3 mph 20.7 mph N/A   Scattered Clouds
3:55 PM 68.0 °F - 37.2 °F 32% 30.12 in 10.0 mi SSE 16.1 mph - N/A   Scattered Clouds
4:15 PM 68.2 °F - 37.4 °F 32% 30.10 in 10.0 mi South 16.1 mph 20.7 mph N/A   Scattered Clouds
4:35 PM 69.1 °F - 37.4 °F 31% 30.10 in 10.0 mi South 17.3 mph 23.0 mph N/A   Scattered Clouds
4:55 PM 68.7 °F - 37.4 °F 32% 30.09 in 10.0 mi South 17.3 mph - N/A   Clear
5:15 PM 68.2 °F - 37.9 °F 33% 30.08 in 10.0 mi South 16.1 mph 23.0 mph N/A   Clear
5:55 PM 68.5 °F - 38.3 °F 33% 30.05 in 10.0 mi SSE 20.7 mph 26.5 mph N/A   Clear
6:15 PM 68.2 °F - 38.3 °F 33% 30.05 in 7.0 mi South 19.6 mph 29.9 mph N/A   Clear
6:35 PM 67.6 °F - 37.8 °F 33% 30.05 in 10.0 mi SSE 19.6 mph 25.3 mph N/A   Clear
6:55 PM 67.3 °F - 38.7 °F 35% 30.03 in 10.0 mi SSE 18.4 mph - N/A   Clear
7:15 PM 66.7 °F - 38.8 °F 36% 30.02 in 10.0 mi SSE 20.7 mph 25.3 mph N/A   Clear
7:35 PM 66.2 °F - 38.8 °F 37% 30.02 in 10.0 mi SSE 16.1 mph 20.7 mph N/A   Clear
7:55 PM 65.3 °F - 40.1 °F 40% 30.02 in 10.0 mi SSE 11.5 mph - N/A   Clear
8:15 PM 64.9 °F - 41.2 °F 42% 30.05 in 10.0 mi SSE 9.2 mph - N/A   Scattered Clouds
8:35 PM 64.2 °F - 42.3 °F 45% 29.99 in 10.0 mi SE 18.4 mph - N/A   Mostly Cloudy
8:55 PM 63.3 °F - 44.1 °F 49% 30.05 in 10.0 mi SSE 10.4 mph - N/A   Scattered Clouds
9:15 PM 63.1 °F - 43.7 °F 49% 30.07 in 10.0 mi ESE 5.8 mph - N/A   Clear
9:35 PM 62.2 °F - 44.2 °F 52% 30.05 in 10.0 mi ESE 8.1 mph - N/A   Clear
9:55 PM 62.1 °F - 44.2 °F 52% 30.04 in 10.0 mi ESE 9.2 mph - N/A   Clear
10:15 PM 62.2 °F - 43.9 °F 51% 30.03 in 10.0 mi SE 12.7 mph - N/A   Clear
10:35 PM 62.2 °F - 43.9 °F 51% 30.05 in 10.0 mi SSE 13.8 mph - N/A   Clear
10:55 PM 62.4 °F - 43.9 °F 51% 30.05 in 10.0 mi SSE 12.7 mph 18.4 mph N/A   Clear
11:15 PM 62.1 °F - 43.9 °F 51% 30.06 in 10.0 mi SE 10.4 mph - N/A   Mostly Cloudy
11:35 PM 61.9 °F - 44.2 °F 52% 30.06 in 10.0 mi SSE 11.5 mph - N/A   Mostly Cloudy
11:55 PM 62.2 °F - 44.2 °F 52% 30.06 in 10.0 mi SSE 12.7 mph 17.3 mph N/A   Overcast